Regional & State Weather Roundups


133 
ASUS45 KGGW 151715
RWRGGW
HOURLY REGIONAL WEATHER ROUNDUP FOR NORTHEAST MONTANA
NATIONAL WEATHER SERVICE GLASGOW MONTANA
1000 AM MST FRI DEC 15 2017
NOTE: "FAIR" INDICATES FEW OR NO CLOUDS BELOW 12,000 FEET WITH NO
SIGNIFICANT WEATHER AND/OR OBSTRUCTIONS TO VISISBILITY.
NORTHEAST MONTANA
  
CITY           SKY/WX    TMP DP  RH WIND       PRES   REMARKS
GLASGOW        CLOUDY    32  23  69 W5        29.68F                  
PLENTYWOOD       N/A     33  25  72 S2          N/A                   
WOLF POINT     CLOUDY    33  24  69 W10       29.68F                  
JORDAN         NOT AVBL                                               
WINNETT          N/A     38  25  59 NE3G12      N/A                   
SIDNEY         CLOUDY    40  23  50 W8        29.67F                  
GLENDIVE       CLOUDY    42  22  44 W13       29.71F                  
MALTA            N/A     36  24  62 SW9         N/A                   
SCOBEY           N/A     35  20  54 CALM      29.64S                  
FORT PECK REPORTS
  
CITY           SKY/WX    TMP DP  RH WIND       PRES   REMARKS
FORT PECK        N/A     39  29  67 S8          N/A                   
THE PINES        N/A     41  28  60 S3          N/A                   
SOUTHEAST MONTANA
  
CITY           SKY/WX    TMP DP  RH WIND       PRES   REMARKS
BILLINGS       CLOUDY    42  17  36 SW26G35   29.82F                  
MILES CITY     CLOUDY    44  21  40 W8        29.76S                  
BAKER          CLOUDY    36  26  67 W15       29.74S                  
LIVINGSTON     CLOUDY    38  21  50 SW58G70   29.89F                  
CENTRAL MONTANA
  
CITY           SKY/WX    TMP DP  RH WIND       PRES   REMARKS
HAVRE          CLOUDY    46  19  34 SW25G31   29.71S                  
LEWISTOWN      CLOUDY    43  21  41 SW14      29.77R                  
GREAT FALLS    CLOUDY    45  14  28 SW40G51   29.79F                  
CUT BANK       MOSUNNY   41  22  46 W23G32    29.77S                  
HELENA         CLOUDY    18  17  96 CALM      30.04F                  
BUTTE          CLOUDY    12   8  84 S3        30.04F                  
BOZEMAN        CLOUDY    14  11  87 CALM      30.06S                  
WESTERN MONTANA
  
CITY           SKY/WX    TMP DP  RH WIND       PRES   REMARKS
MISSOULA       CLOUDY    25  24  96 N6        30.11S FOG              
KALISPELL      NOT AVBL                                               
NORTH DAKOTA
  
CITY           SKY/WX    TMP DP  RH WIND       PRES   REMARKS
WILLISTON      MOSUNNY   36  23  60 SW9       29.64F                  
DICKINSON      CLOUDY    37  23  56 W17       29.65S                  
MINOT          CLOUDY    35  26  69 S12       29.63F                  
BISMARCK       CLOUDY    32  25  75 SE5       29.71F                  
SOUTHERN SASKATCHEWAN
  
CITY           SKY/WX    TMP DP  RH WIND       PRES   REMARKS
REGINA         CLOUDY    34  28  80 W8        29.55R                  
MOOSE JAW      CLOUDY    41  28  60 W15       29.57S                  
ESTEVAN        CLOUDY    34  25  69 SW8       29.59F                  
SWIFT CURRENT  MOSUNNY   39  21  48 W14       29.59F